When you browse on this site, cookies collect data to enhance your experience and personalize the content and advertising you see.
Visit our Privacy Policy to learn more. By continuing to use the site, you agree to this use of cookies and data.
  • In France
  • List of Countries
  • For 7 days
  • Water Temperature
  • Weather Map
  • Weather Widgets
  • user-avatar
    Login

    Hourly Weather Taba

    Today, 23 August, Friday

    Time Temperature Precipitation Wind Pressure Humidity
    00:00 +21°C° 0 mm 3 mps 689 mmHg 81%
    01:00 +20°C° 0 mm 3 mps 689 mmHg 84%
    02:00 +20°C° 0 mm 3 mps 688 mmHg 87%
    03:00 +20°C° 0 mm 3 mps 688 mmHg 88%
    04:00 +19°C° 0 mm 3 mps 688 mmHg 89%
    05:00 +19°C° 0 mm 3 mps 688 mmHg 89%
    06:00 +21°C° 0 mm 3 mps 688 mmHg 78%
    07:00 +24°C° 0 mm 3 mps 689 mmHg 67%
    08:00 +25°C° 0 mm 4 mps 689 mmHg 56%
    09:00 +28°C° 0 mm 3 mps 689 mmHg 46%
    10:00 +31°C° 0 mm 3 mps 690 mmHg 36%
    11:00 +35°C° 0 mm 3 mps 690 mmHg 26%
    12:00 +37°C° 0 mm 3 mps 690 mmHg 23%
    13:00 +38°C° 0 mm 2 mps 690 mmHg 19%
    14:00 +39°C° 0 mm 2 mps 689 mmHg 16%
    15:00 +39°C° 0 mm 2 mps 689 mmHg 17%
    16:00 +38°C° 0 mm 3 mps 689 mmHg 19%
    17:00 +37°C° 0 mm 4 mps 689 mmHg 20%
    18:00 +34°C° 0 mm 4 mps 689 mmHg 34%
    19:00 +29°C° 0 mm 4 mps 689 mmHg 48%
    20:00 +26°C° 0 mm 5 mps 689 mmHg 62%
    21:00 +25°C° 0 mm 4 mps 689 mmHg 67%
    22:00 +24°C° 0 mm 3 mps 689 mmHg 73%
    23:00 +23°C° 0 mm 2 mps 689 mmHg 78%

    Tomorrow, 24 August, Saturday

    Time Temperature Precipitation Wind Pressure Humidity
    00:00 +23°C° 0 mm 2 mps 688 mmHg 78%
    01:00 +21°C° 0 mm 2 mps 688 mmHg 78%
    02:00 +21°C° 0 mm 2 mps 688 mmHg 77%
    03:00 +21°C° 0 mm 2 mps 688 mmHg 79%
    04:00 +20°C° 0 mm 2 mps 688 mmHg 81%
    05:00 +20°C° 0 mm 2 mps 688 mmHg 82%
    06:00 +23°C° 0 mm 2 mps 689 mmHg 72%
    07:00 +25°C° 0 mm 2 mps 689 mmHg 63%
    08:00 +27°C° 0 mm 2 mps 690 mmHg 53%
    09:00 +30°C° 0 mm 2 mps 690 mmHg 44%
    10:00 +32°C° 0 mm 1 mps 691 mmHg 35%
    11:00 +35°C° 0 mm 1 mps 691 mmHg 26%
    12:00 +37°C° 0 mm 2 mps 691 mmHg 24%
    13:00 +38°C° 0 mm 2 mps 691 mmHg 21%
    14:00 +40°C° 0 mm 3 mps 690 mmHg 18%
    15:00 +39°C° 0 mm 3 mps 690 mmHg 18%
    16:00 +38°C° 0 mm 3 mps 690 mmHg 19%
    17:00 +38°C° 0 mm 3 mps 690 mmHg 20%
    18:00 +35°C° 0 mm 3 mps 690 mmHg 30%
    19:00 +31°C° 0 mm 3 mps 690 mmHg 40%
    20:00 +28°C° 0 mm 3 mps 690 mmHg 50%
    21:00 +27°C° 0 mm 3 mps 690 mmHg 54%
    22:00 +26°C° 0 mm 2 mps 690 mmHg 57%
    23:00 +25°C° 0 mm 2 mps 690 mmHg 61%

    Day after tomorrow, 25 August, Sunday

    Time Temperature Precipitation Wind Pressure Humidity
    00:00 +25°C° 0 mm 2 mps 690 mmHg 62%
    01:00 +24°C° 0 mm 1 mps 690 mmHg 63%
    02:00 +24°C° 0 mm 1 mps 689 mmHg 64%
    03:00 +24°C° 0 mm 1 mps 689 mmHg 64%
    04:00 +23°C° 0 mm 1 mps 690 mmHg 64%
    05:00 +23°C° 0 mm 1 mps 690 mmHg 64%
    06:00 +25°C° 0 mm 1 mps 690 mmHg 55%
    07:00 +28°C° 0 mm 1 mps 691 mmHg 47%
    08:00 +30°C° 0 mm 1 mps 691 mmHg 38%
    09:00 +32°C° 0 mm 1 mps 691 mmHg 33%
    10:00 +35°C° 0 mm 2 mps 691 mmHg 28%
    11:00 +37°C° 0 mm 2 mps 692 mmHg 23%
    12:00 +38°C° 0 mm 2 mps 691 mmHg 21%
    13:00 +39°C° 0 mm 2 mps 691 mmHg 18%
    14:00 +40°C° 0 mm 3 mps 691 mmHg 16%
    15:00 +39°C° 0 mm 3 mps 691 mmHg 17%
    16:00 +39°C° 0 mm 3 mps 690 mmHg 18%
    17:00 +38°C° 0 mm 3 mps 690 mmHg 19%
    18:00 +35°C° 0 mm 3 mps 690 mmHg 28%
    19:00 +32°C° 0 mm 4 mps 690 mmHg 37%
    20:00 +29°C° 0 mm 4 mps 690 mmHg 46%
    21:00 +27°C° 0 mm 3 mps 690 mmHg 51%
    22:00 +26°C° 0 mm 3 mps 690 mmHg 55%
    23:00 +25°C° 0 mm 3 mps 690 mmHg 60%

    26 August, Monday

    Time Temperature Precipitation Wind Pressure Humidity
    00:00 +25°C° 0 mm 3 mps 690 mmHg 59%
    01:00 +24°C° 0 mm 2 mps 690 mmHg 58%
    02:00 +24°C° 0 mm 2 mps 690 mmHg 57%
    03:00 +24°C° 0 mm 2 mps 690 mmHg 58%
    04:00 +23°C° 0 mm 2 mps 690 mmHg 60%
    05:00 +21°C° 0 mm 2 mps 690 mmHg 61%
    06:00 +25°C° 0 mm 2 mps 690 mmHg 51%
    07:00 +27°C° 0 mm 1 mps 691 mmHg 41%
    08:00 +30°C° 0 mm 1 mps 691 mmHg 31%
    09:00 +32°C° 0 mm 2 mps 692 mmHg 28%
    10:00 +35°C° 0 mm 2 mps 692 mmHg 24%
    11:00 +37°C° 0 mm 2 mps 692 mmHg 20%
    12:00 +38°C° 0 mm 2 mps 691 mmHg 18%
    13:00 +39°C° 0 mm 2 mps 691 mmHg 16%
    14:00 +40°C° 0 mm 3 mps 691 mmHg 15%
    15:00 +40°C° 0 mm 4 mps 690 mmHg 16%
    16:00 +38°C° 0 mm 4 mps 690 mmHg 17%
    17:00 +39°C° 0 mm 5 mps 690 mmHg 18%
    18:00 +34°C° 0 mm 6 mps 690 mmHg 30%
    19:00 +30°C° 0 mm 6 mps 690 mmHg 42%
    20:00 +27°C° 0 mm 6 mps 690 mmHg 54%
    21:00 +26°C° 0 mm 5 mps 690 mmHg 55%
    22:00 +25°C° 0 mm 4 mps 690 mmHg 56%
    23:00 +24°C° 0 mm 3 mps 690 mmHg 57%

    27 August, Tuesday

    Time Temperature Precipitation Wind Pressure Humidity
    00:00 +24°C° 0 mm 3 mps 690 mmHg 60%
    01:00 +22°C° 0 mm 3 mps 690 mmHg 62%
    02:00 +21°C° 0 mm 3 mps 690 mmHg 65%
    03:00 +21°C° 0 mm 2 mps 690 mmHg 63%
    04:00 +21°C° 0 mm 2 mps 690 mmHg 60%
    05:00 +20°C° 0 mm 2 mps 690 mmHg 58%
    06:00 +24°C° 0 mm 2 mps 690 mmHg 47%
    07:00 +27°C° 0 mm 2 mps 690 mmHg 36%
    08:00 +29°C° 0 mm 2 mps 691 mmHg 25%
    09:00 +31°C° 0 mm 2 mps 691 mmHg 22%
    10:00 +34°C° 0 mm 2 mps 691 mmHg 20%
    11:00 +36°C° 0 mm 3 mps 691 mmHg 17%
    12:00 +37°C° 0 mm 3 mps 691 mmHg 16%
    13:00 +38°C° 0 mm 3 mps 691 mmHg 15%
    14:00 +39°C° 0 mm 2 mps 690 mmHg 14%
    15:00 +38°C° 0 mm 4 mps 690 mmHg 16%
    16:00 +37°C° 0 mm 5 mps 690 mmHg 17%
    17:00 +36°C° 0 mm 7 mps 690 mmHg 19%
    18:00 +33°C° 0 mm 6 mps 690 mmHg 30%
    19:00 +29°C° 0 mm 6 mps 690 mmHg 41%
    20:00 +26°C° 0 mm 6 mps 690 mmHg 52%
    21:00 +25°C° 0 mm 5 mps 690 mmHg 54%
    22:00 +23°C° 0 mm 4 mps 690 mmHg 56%
    23:00 +22°C° 0 mm 3 mps 690 mmHg 58%

    28 August, Wednesday

    Time Temperature Precipitation Wind Pressure Humidity
    00:00 +22°C° 0 mm 3 mps 690 mmHg 59%
    01:00 +21°C° 0 mm 3 mps 689 mmHg 61%
    02:00 +21°C° 0 mm 3 mps 689 mmHg 62%
    03:00 +21°C° 0 mm 2 mps 689 mmHg 60%
    04:00 +20°C° 0 mm 2 mps 689 mmHg 58%
    05:00 +20°C° 0 mm 2 mps 689 mmHg 56%
    06:00 +23°C° 0 mm 2 mps 689 mmHg 46%
    07:00 +26°C° 0 mm 2 mps 690 mmHg 36%
    08:00 +28°C° 0 mm 2 mps 690 mmHg 26%
    09:00 +30°C° 0 mm 2 mps 690 mmHg 23%
    10:00 +32°C° 0 mm 2 mps 690 mmHg 19%
    11:00 +35°C° 0 mm 2 mps 690 mmHg 16%
    12:00 +36°C° 0 mm 2 mps 690 mmHg 15%
    13:00 +37°C° 0 mm 3 mps 690 mmHg 14%
    14:00 +38°C° 0 mm 4 mps 689 mmHg 13%
    15:00 +37°C° 0 mm 5 mps 689 mmHg 15%
    16:00 +38°C° 0 mm 6 mps 689 mmHg 18%
    17:00 +36°C° 0 mm 6 mps 689 mmHg 20%
    18:00 +33°C° 0 mm 6 mps 689 mmHg 31%
    19:00 +29°C° 0 mm 6 mps 689 mmHg 43%
    20:00 +26°C° 0 mm 6 mps 689 mmHg 54%
    21:00 +25°C° 0 mm 5 mps 689 mmHg 57%
    22:00 +23°C° 0 mm 4 mps 689 mmHg 61%
    23:00 +22°C° 0 mm 3 mps 689 mmHg 64%
    Show more